Location: Sihaung
(22.8641°N, 94.0549°E)
Time: 01:33:18
(UTC+00:00)

ADEOS - Pass Details

Date: 03 March 2021
Orbit: 793 x 794 km, 98.9° (Epoch: 13 April)

Event Time Altitude Azimuth Distance (km) Brightness Sun altitude
Rises 23:08:55 0° 356° (N) 3,292 6.7 -13.2°
Reaches altitude 10° 23:11:32 10° 345° (NNW) 2,360 5.9 -12.6°
Maximum altitude 23:15:52 27° 288° (WNW) 1,476 4.4 -11.6°
Drops below altitude 10° 23:20:12 10° 231° (SW) 2,353 5.6 -10.6°
Sets 23:22:49 0° 220° (SW) 3,280 6.4 -10.0°
